EZY71CH EGAA-EGGW

Flight info

Callsign EZY71CH
Flight time 0h 56m
Altitude 33000
Route LISBO DCT RINGA DCT BABGU DCT ETIGA DCT INKOB Q39 NOMSU UQ4 LISTO
Aircraft A320/M-SDE3FGHIRWY/LB1

Departure

Time 2026-05-07 18:29
Airport Belfast International Airport (EGAA)

Arrival

Time 2026-05-07 19:25
Airport London Luton Airport (EGGW)
Time Latitude Longitude Altitude Speed Heading
2026-05-07 18:02 54.66017 -6.22022 230 ft 0 kts 15°
2026-05-07 18:16 54.66015 -6.22023 229 ft 0 kts 15°
2026-05-07 18:16 54.66006 -6.22027 230 ft 2 kts 23°
2026-05-07 18:17 54.66005 -6.22028 230 ft 0 kts 23°
2026-05-07 18:19 54.66006 -6.22028 229 ft 0 kts 23°
2026-05-07 18:19 54.66006 -6.22027 229 ft 0 kts 23°
2026-05-07 18:22 54.65998 -6.22014 232 ft 2 kts 167°
2026-05-07 18:22 54.65962 -6.22037 230 ft 8 kts 207°
2026-05-07 18:23 54.65894 -6.22039 231 ft 11 kts 156°
2026-05-07 18:23 54.65841 -6.21967 233 ft 10 kts 110°
2026-05-07 18:23 54.65866 -6.21819 235 ft 14 kts 65°
2026-05-07 18:23 54.65900 -6.21690 237 ft 10 kts 64°
2026-05-07 18:24 54.65935 -6.21570 239 ft 11 kts 65°
2026-05-07 18:24 54.65968 -6.21445 241 ft 10 kts 65°
2026-05-07 18:24 54.65996 -6.21346 242 ft 10 kts 64°
2026-05-07 18:24 54.66037 -6.21192 244 ft 13 kts 65°
2026-05-07 18:25 54.66071 -6.21065 246 ft 10 kts 65°
2026-05-07 18:25 54.66109 -6.20927 248 ft 15 kts 64°
2026-05-07 18:25 54.66150 -6.20770 250 ft 17 kts 65°
2026-05-07 18:25 54.66203 -6.20573 253 ft 17 kts 65°
2026-05-07 18:26 54.66247 -6.20412 255 ft 13 kts 65°
2026-05-07 18:26 54.66280 -6.20289 257 ft 10 kts 65°
2026-05-07 18:26 54.66319 -6.20144 258 ft 21 kts 65°
2026-05-07 18:26 54.66382 -6.19910 261 ft 19 kts 66°
2026-05-07 18:27 54.66375 -6.19732 264 ft 11 kts 131°
2026-05-07 18:27 54.66306 -6.19663 264 ft 12 kts 156°
2026-05-07 18:27 54.66255 -6.19704 262 ft 9 kts 249°
2026-05-07 18:27 54.66254 -6.19707 262 ft 0 kts 249°
2026-05-07 18:28 54.66149 -6.20104 260 ft 74 kts 244°
2026-05-07 18:28 54.65827 -6.21285 240 ft 137 kts 245°
2026-05-07 18:28 54.65378 -6.22994 506 ft 159 kts 241°
2026-05-07 18:29 54.64931 -6.24696 1157 ft 161 kts 240°
2026-05-07 18:29 54.64427 -6.26505 1684 ft 175 kts 241°
2026-05-07 18:29 54.63751 -6.28423 1889 ft 200 kts 219°
2026-05-07 18:29 54.62425 -6.29249 2295 ft 220 kts 179°
2026-05-07 18:30 54.60903 -6.28251 2742 ft 252 kts 143°
2026-05-07 18:30 54.59701 -6.25947 3522 ft 262 kts 133°
2026-05-07 18:30 54.58661 -6.23325 4411 ft 269 kts 117°
2026-05-07 18:30 54.57985 -6.20250 5302 ft 273 kts 115°
2026-05-07 18:31 54.57170 -6.17377 6443 ft 260 kts 126°
2026-05-07 18:31 54.56120 -6.14801 7128 ft 272 kts 130°
2026-05-07 18:31 54.54982 -6.12125 7835 ft 280 kts 130°
2026-05-07 18:31 54.53784 -6.09379 8630 ft 285 kts 131°
2026-05-07 18:32 54.52573 -6.06676 9532 ft 288 kts 129°
2026-05-07 18:32 54.51283 -6.03991 10188 ft 295 kts 126°
2026-05-07 18:32 54.50217 -6.00798 10506 ft 318 kts 117°
2026-05-07 18:32 54.49349 -5.97158 10951 ft 332 kts 114°
2026-05-07 18:33 54.48561 -5.93369 11597 ft 341 kts 111°
2026-05-07 18:33 54.47886 -5.89411 12391 ft 342 kts 101°
2026-05-07 18:33 54.47162 -5.85465 12882 ft 350 kts 114°
2026-05-07 18:33 54.46213 -5.81597 13549 ft 353 kts 121°
2026-05-07 18:34 54.45203 -5.77734 14112 ft 347 kts 114°
2026-05-07 18:34 54.44329 -5.73825 14425 ft 355 kts 115°
2026-05-07 18:34 54.43338 -5.69865 15058 ft 357 kts 118°
2026-05-07 18:34 54.42245 -5.65999 15638 ft 361 kts 120°
2026-05-07 18:35 54.41147 -5.62074 16250 ft 365 kts 119°
2026-05-07 18:35 54.40063 -5.58123 16876 ft 367 kts 122°
2026-05-07 18:35 54.38718 -5.54399 17503 ft 367 kts 129°
2026-05-07 18:35 54.37259 -5.50800 18105 ft 370 kts 129°
2026-05-07 18:36 54.35790 -5.47159 18642 ft 373 kts 129°
2026-05-07 18:36 54.34305 -5.43477 19161 ft 376 kts 129°
2026-05-07 18:36 54.32808 -5.39773 19671 ft 379 kts 129°
2026-05-07 18:36 54.31278 -5.35993 20207 ft 382 kts 129°
2026-05-07 18:37 54.29743 -5.32216 20717 ft 385 kts 129°
2026-05-07 18:37 54.28199 -5.28439 21221 ft 388 kts 129°
2026-05-07 18:37 54.26619 -5.24747 21696 ft 390 kts 131°
2026-05-07 18:37 54.24909 -5.21061 22193 ft 392 kts 133°
2026-05-07 18:38 54.23742 -5.18653 22514 ft 394 kts 134°
2026-05-07 18:38 54.21961 -5.15052 22993 ft 396 kts 134°
2026-05-07 18:38 54.20157 -5.11429 23457 ft 399 kts 134°
2026-05-07 18:38 54.18362 -5.07801 23854 ft 402 kts 134°
2026-05-07 18:39 54.16563 -5.04128 24252 ft 404 kts 133°
2026-05-07 18:39 54.14753 -5.00392 24655 ft 407 kts 133°
2026-05-07 18:39 54.12953 -4.96664 25033 ft 409 kts 133°
2026-05-07 18:39 54.11143 -4.92916 25424 ft 411 kts 133°
2026-05-07 18:40 54.09322 -4.89151 25800 ft 412 kts 133°
2026-05-07 18:40 54.07486 -4.85369 26179 ft 414 kts 133°
2026-05-07 18:40 54.05638 -4.81576 26547 ft 416 kts 133°
2026-05-07 18:40 54.03802 -4.77793 26920 ft 418 kts 132°
2026-05-07 18:41 54.01970 -4.73839 27287 ft 421 kts 131°
2026-05-07 18:41 54.00205 -4.69873 27631 ft 423 kts 130°
2026-05-07 18:41 53.98414 -4.65774 27996 ft 425 kts 130°
2026-05-07 18:41 53.96635 -4.61686 28364 ft 427 kts 130°
2026-05-07 18:42 53.94847 -4.57612 28727 ft 429 kts 130°
2026-05-07 18:42 53.93052 -4.53561 29047 ft 431 kts 130°
2026-05-07 18:42 53.91227 -4.49487 29382 ft 433 kts 130°
2026-05-07 18:42 53.89392 -4.45423 29672 ft 435 kts 130°
2026-05-07 18:43 53.87537 -4.41329 29981 ft 438 kts 130°
2026-05-07 18:43 53.85713 -4.37210 30257 ft 440 kts 129°
2026-05-07 18:43 53.83936 -4.32963 30504 ft 442 kts 128°
2026-05-07 18:43 53.82205 -4.28670 30766 ft 444 kts 127°
2026-05-07 18:44 53.80473 -4.24316 31019 ft 446 kts 127°
2026-05-07 18:44 53.78728 -4.19946 31283 ft 447 kts 127°
2026-05-07 18:44 53.76931 -4.15498 31646 ft 445 kts 127°
2026-05-07 18:44 53.75193 -4.11244 32012 ft 444 kts 128°
2026-05-07 18:45 53.73408 -4.06909 32368 ft 443 kts 128°
2026-05-07 18:45 53.71639 -4.02641 32704 ft 442 kts 128°
2026-05-07 18:45 53.69872 -3.98399 32952 ft 442 kts 128°
2026-05-07 18:46 53.66408 -3.90072 32999 ft 428 kts 128°
2026-05-07 18:46 53.62981 -3.81843 32998 ft 427 kts 128°
2026-05-07 18:47 53.59569 -3.73685 33000 ft 427 kts 128°
2026-05-07 18:47 53.56099 -3.65388 32999 ft 427 kts 128°
2026-05-07 18:48 53.52665 -3.57210 32994 ft 426 kts 128°
2026-05-07 18:48 53.49215 -3.49050 33001 ft 426 kts 128°
2026-05-07 18:49 53.46097 -3.40548 33003 ft 430 kts 116°
2026-05-07 18:49 53.43760 -3.31299 33002 ft 430 kts 116°
2026-05-07 18:50 53.41409 -3.22063 33018 ft 430 kts 116°
2026-05-07 18:50 53.39041 -3.12831 33021 ft 430 kts 115°
2026-05-07 18:51 53.36836 -3.03411 33025 ft 430 kts 112°
2026-05-07 18:51 53.34793 -2.93983 33037 ft 430 kts 112°
2026-05-07 18:52 53.32716 -2.84539 33036 ft 429 kts 113°
2026-05-07 18:52 53.30616 -2.75256 33023 ft 428 kts 113°
2026-05-07 18:53 53.28071 -2.66232 33027 ft 426 kts 118°
2026-05-07 18:53 53.25868 -2.58779 33028 ft 426 kts 119°
2026-05-07 18:54 53.23244 -2.49898 33028 ft 425 kts 118°
2026-05-07 18:54 53.20628 -2.41042 33023 ft 425 kts 118°
2026-05-07 18:55 53.17991 -2.32178 33018 ft 425 kts 118°
2026-05-07 18:55 53.15244 -2.23434 33020 ft 423 kts 126°
2026-05-07 18:56 53.11295 -2.16206 33019 ft 417 kts 144°
2026-05-07 18:56 53.06614 -2.10495 33016 ft 417 kts 146°
2026-05-07 18:57 53.01897 -2.04760 33016 ft 417 kts 146°
2026-05-07 18:57 52.97263 -1.99130 32720 ft 411 kts 146°
2026-05-07 18:57 52.94967 -1.96348 32451 ft 406 kts 146°
2026-05-07 18:58 52.92646 -1.93543 32179 ft 404 kts 146°
2026-05-07 18:58 52.90383 -1.90816 31917 ft 402 kts 146°
2026-05-07 18:58 52.88152 -1.88135 31659 ft 400 kts 146°
2026-05-07 18:58 52.85881 -1.85405 31379 ft 396 kts 146°
2026-05-07 18:59 52.83677 -1.82756 30935 ft 393 kts 146°
2026-05-07 18:59 52.81481 -1.80116 30482 ft 390 kts 146°
2026-05-07 18:59 52.79274 -1.77472 30018 ft 387 kts 146°
2026-05-07 18:59 52.77098 -1.74868 29537 ft 383 kts 146°
2026-05-07 19:00 52.74949 -1.72325 29091 ft 378 kts 150°
2026-05-07 19:00 52.72663 -1.70208 28674 ft 371 kts 155°
2026-05-07 19:00 52.70395 -1.68257 28248 ft 367 kts 155°
2026-05-07 19:00 52.68141 -1.66321 27834 ft 363 kts 155°
2026-05-07 19:01 52.65915 -1.64406 27419 ft 359 kts 155°
2026-05-07 19:01 52.63705 -1.62503 26993 ft 356 kts 155°
2026-05-07 19:01 52.61509 -1.60615 26585 ft 354 kts 155°
2026-05-07 19:01 52.59336 -1.58749 26169 ft 351 kts 155°
2026-05-07 19:02 52.57177 -1.56900 25749 ft 349 kts 155°
2026-05-07 19:02 52.55009 -1.55047 25315 ft 348 kts 155°
2026-05-07 19:02 52.52847 -1.53203 24874 ft 346 kts 155°
2026-05-07 19:02 52.50714 -1.51387 24429 ft 346 kts 156°
2026-05-07 19:03 52.48584 -1.49575 24014 ft 345 kts 156°
2026-05-07 19:03 52.46450 -1.47760 23539 ft 345 kts 155°
2026-05-07 19:03 52.44320 -1.45953 23051 ft 344 kts 155°
2026-05-07 19:03 52.42190 -1.44149 22614 ft 341 kts 155°
2026-05-07 19:04 52.40085 -1.42364 22209 ft 339 kts 155°
2026-05-07 19:04 52.37966 -1.40566 21769 ft 337 kts 155°
2026-05-07 19:04 52.35903 -1.38812 21349 ft 336 kts 155°
2026-05-07 19:04 52.33848 -1.37069 20927 ft 334 kts 155°
2026-05-07 19:05 52.31764 -1.35306 20502 ft 333 kts 155°
2026-05-07 19:05 52.29703 -1.33568 20085 ft 332 kts 155°
2026-05-07 19:05 52.27666 -1.31768 19749 ft 332 kts 153°
2026-05-07 19:05 52.25634 -1.29863 19412 ft 332 kts 152°
2026-05-07 19:06 52.23655 -1.27964 19078 ft 330 kts 152°
2026-05-07 19:06 52.19842 -1.23828 18414 ft 329 kts 138°
2026-05-07 19:06 52.18240 -1.21160 18020 ft 327 kts 136°
2026-05-07 19:07 52.16672 -1.18467 17357 ft 322 kts 136°
2026-05-07 19:07 52.15134 -1.15820 16706 ft 319 kts 136°
2026-05-07 19:07 52.13620 -1.13211 16086 ft 315 kts 136°
2026-05-07 19:07 52.12096 -1.10586 15475 ft 312 kts 136°
2026-05-07 19:08 52.10610 -1.08024 14881 ft 308 kts 136°
2026-05-07 19:08 52.09130 -1.05469 14306 ft 305 kts 136°
2026-05-07 19:08 52.07681 -1.02968 13729 ft 302 kts 136°
2026-05-07 19:08 52.06704 -1.01282 13289 ft 300 kts 136°
2026-05-07 19:09 52.05279 -0.98830 12647 ft 297 kts 136°
2026-05-07 19:09 52.03402 -0.95633 11821 ft 293 kts 136°
2026-05-07 19:09 52.02446 -0.94019 11384 ft 292 kts 136°
2026-05-07 19:09 52.01038 -0.91650 10770 ft 290 kts 136°
2026-05-07 19:10 51.99648 -0.89322 10186 ft 287 kts 136°
2026-05-07 19:10 51.98262 -0.87017 9594 ft 284 kts 136°
2026-05-07 19:10 51.96882 -0.84740 8962 ft 280 kts 136°
2026-05-07 19:10 51.95516 -0.82485 8277 ft 279 kts 136°
2026-05-07 19:11 51.94210 -0.80153 7619 ft 278 kts 132°
2026-05-07 19:11 51.92963 -0.77744 6967 ft 276 kts 130°
2026-05-07 19:11 51.91744 -0.75357 6384 ft 273 kts 131°
2026-05-07 19:11 51.90533 -0.73044 5764 ft 269 kts 132°
2026-05-07 19:12 51.89321 -0.70732 5178 ft 266 kts 132°
2026-05-07 19:12 51.88142 -0.68459 4636 ft 259 kts 132°
2026-05-07 19:12 51.86988 -0.66248 4138 ft 250 kts 132°
2026-05-07 19:12 51.85908 -0.64158 3819 ft 237 kts 132°
2026-05-07 19:13 51.84879 -0.62149 3487 ft 225 kts 131°
2026-05-07 19:13 51.84088 -0.60037 3203 ft 215 kts 114°
2026-05-07 19:13 51.83773 -0.57755 3098 ft 206 kts 93°
2026-05-07 19:13 51.84038 -0.55479 2932 ft 212 kts 71°
2026-05-07 19:14 51.84565 -0.53275 2731 ft 213 kts 72°
2026-05-07 19:14 51.85076 -0.50986 2442 ft 206 kts 75°
2026-05-07 19:14 51.85440 -0.48846 2098 ft 192 kts 78°
2026-05-07 19:14 51.85748 -0.46834 1824 ft 175 kts 79°
2026-05-07 19:15 51.86054 -0.45001 1491 ft 161 kts 77°
2026-05-07 19:15 51.86352 -0.43291 1192 ft 149 kts 77°
2026-05-07 19:15 51.86623 -0.41713 963 ft 141 kts 77°
2026-05-07 19:15 51.86889 -0.40216 785 ft 136 kts 78°
2026-05-07 19:16 51.87138 -0.38737 630 ft 136 kts 77°
2026-05-07 19:16 51.87379 -0.37329 529 ft 122 kts 77°
2026-05-07 19:16 51.87642 -0.35797 985 ft 147 kts 77°
2026-05-07 19:16 51.87925 -0.34193 1837 ft 154 kts 77°
2026-05-07 19:17 51.88233 -0.32452 2293 ft 170 kts 72°
2026-05-07 19:17 51.88998 -0.30863 2582 ft 196 kts 33°
2026-05-07 19:17 51.90389 -0.30293 2872 ft 222 kts 355°
2026-05-07 19:17 51.91882 -0.31120 2998 ft 229 kts 322°
2026-05-07 19:18 51.92852 -0.33113 3007 ft 224 kts 288°
2026-05-07 19:18 51.92955 -0.35968 3008 ft 222 kts 259°
2026-05-07 19:18 51.92710 -0.38022 3007 ft 222 kts 255°
2026-05-07 19:18 51.92375 -0.40467 3012 ft 222 kts 256°
2026-05-07 19:19 51.92027 -0.42905 3011 ft 222 kts 255°
2026-05-07 19:19 51.91682 -0.45342 3006 ft 221 kts 255°
2026-05-07 19:19 51.91338 -0.47775 3012 ft 221 kts 255°
2026-05-07 19:19 51.90985 -0.50210 3004 ft 222 kts 255°
2026-05-07 19:20 51.90632 -0.52623 3008 ft 214 kts 255°
2026-05-07 19:20 51.90290 -0.54896 3005 ft 203 kts 249°
2026-05-07 19:20 51.89452 -0.56693 3008 ft 195 kts 213°
2026-05-07 19:20 51.88305 -0.57722 2957 ft 187 kts 205°
2026-05-07 19:21 51.87140 -0.58594 2767 ft 180 kts 203°
2026-05-07 19:21 51.85955 -0.59161 2501 ft 176 kts 176°
2026-05-07 19:21 51.84823 -0.58472 2510 ft 179 kts 140°
2026-05-07 19:21 51.84190 -0.56768 2514 ft 182 kts 102°
2026-05-07 19:22 51.84334 -0.54813 2510 ft 172 kts 75°
2026-05-07 19:22 51.84682 -0.52846 2382 ft 188 kts 76°
2026-05-07 19:22 51.85027 -0.50870 2147 ft 175 kts 77°
2026-05-07 19:22 51.85344 -0.49052 1938 ft 161 kts 76°
2026-05-07 19:23 51.85632 -0.47404 1726 ft 149 kts 78°
2026-05-07 19:23 51.85910 -0.45803 1481 ft 143 kts 77°
2026-05-07 19:23 51.86176 -0.44264 1283 ft 141 kts 78°
2026-05-07 19:23 51.86437 -0.42743 1129 ft 139 kts 77°
2026-05-07 19:24 51.86707 -0.41248 914 ft 137 kts 77°
2026-05-07 19:24 51.86962 -0.39750 756 ft 136 kts 78°
2026-05-07 19:24 51.87215 -0.38295 542 ft 135 kts 79°
2026-05-07 19:24 51.87426 -0.37013 523 ft 90 kts 72°
2026-05-07 19:25 51.87554 -0.36309 521 ft 39 kts 75°
2026-05-07 19:25 51.87607 -0.36005 516 ft 28 kts 74°
2026-05-07 19:25 51.87698 -0.35930 516 ft 19 kts 349°
2026-05-07 19:25 51.87783 -0.36077 518 ft 18 kts 267°
2026-05-07 19:26 51.87752 -0.36266 518 ft 17 kts 255°
2026-05-07 19:26 51.87732 -0.36391 518 ft 17 kts 256°
2026-05-07 19:26 51.87702 -0.36574 520 ft 17 kts 249°
2026-05-07 19:26 51.87668 -0.36752 523 ft 17 kts 256°
2026-05-07 19:27 51.87639 -0.36928 526 ft 16 kts 254°
2026-05-07 19:27 51.87597 -0.37165 522 ft 26 kts 253°
2026-05-07 19:27 51.87617 -0.37443 523 ft 25 kts 322°
2026-05-07 19:27 51.87728 -0.37665 520 ft 26 kts 296°
2026-05-07 19:28 51.87805 -0.37924 523 ft 25 kts 302°
2026-05-07 19:28 51.87954 -0.38002 523 ft 24 kts 21°
2026-05-07 19:28 51.88092 -0.37838 523 ft 14 kts 41°
2026-05-07 19:28 51.88081 -0.37744 523 ft 0 kts 127°